星链-36856(STARLINK-36856)

导读

STARLINK-36856是美国SpaceX星链星座的卫星,发射于2026年2月21日,属于星链互联网卫星项目。星链项目旨在构建全球卫星互联网星座,为全球偏远地区、海洋等场景提供低延迟高速互联网接入服务,该卫星入轨后将补充星链星座的服务能力,推动全球卫星通信网络覆盖进一步完善。

Basic Information
目录编号:
67883
目录名称:
STARLINK-36856
国际标识:
2026-035E
轨道中心:
EARTH
卫星名称:
星链-36856
卫星全名:
星链-36856(STARLINK-36856)
卫星状态:
在轨 (已飞行195 天)
发射日期:
2026-02-21 UTC
国别 :
美国 (US)
星等 :
--
Orbit Information
数据来源 国际轨道数据
星历时间: 2026-09-04T01:49:39+0800
12小时前
查看轨道信息
半长轴: 6843.603km
偏心率: 0.0001961
轨道倾角: 97.285°
近地点辐角 95.783°
升交点赤经 178.807°
平近点角 264.364°
近地点: 464.123km
远地点: 466.809km
周期: 93.905分钟
每日圈数: 15.334711
Detailed Information
固有亮度:
5
最大亮度:
2.5
卫星平台:
Starlink V1.0
覆盖范围:
全球
运营商:
太空探索技术公司
运营商所在国:
美国
制造商(研发单位):
太空探索技术公司
制造商所在国:
美国
使用方式:
暂无
Satellite Introduction
Starlink 计划是 SpaceX 推出的全球卫星互联网项目,通过发射低轨道卫星,为全球尤其是偏远地区提供高速、低延迟的互联网服务。自 2019 年起,Starlink 已部署数千颗卫星,旨在缩小全球数字鸿沟,推动互联网普及。该项目还为军事、航空等行业提供通信支持,带来广泛经济效益。
2D Orbit Map
3D Orbit Map
Orbit Altitude Analysis Chart
Orbit Inclination Analysis Chart
Orbit Comprehensive Analysis Chart
View Comprehensive Chart
Conjunction Data List
Event ID Objects TCA Miss Dist (km) Collision Risk Probability Collision Risk Index (CRI) Action
CDM_260904-074505-246906-788322
2026-09-04T
07:45:18+0000
2.446 km
极远距离
1.791515E-6 低风险 0.4
CDM_260905-000805-284406-788321
2026-09-05T
00:08:18+0000
2.577 km
极远距离
1.548799E-6 低风险 0.39
CDM_260903-213805-245606-788321
2026-09-03T
21:38:58+0000
2.921 km
极远距离
1.377442E-6 低风险 0.38